TimeMST,TemperatureF,Dew PointF,Humidity,Sea Level PressureIn,VisibilityMPH,Wind Direction,Wind SpeedMPH,Gust SpeedMPH,PrecipitationIn,Events,Conditions,WindDirDegrees,DateUTC
12:54 AM,28.9,16.0,58,30.33,10.0,WSW,12.7,-,N/A,,Clear,240,2013-03-02 07:54:00
1:54 AM,30.0,16.0,56,30.32,10.0,WSW,12.7,-,N/A,,Clear,250,2013-03-02 08:54:00
2:54 AM,28.9,16.0,58,30.30,10.0,West,10.4,-,N/A,,Clear,260,2013-03-02 09:54:00
3:54 AM,28.9,16.0,58,30.30,10.0,WSW,15.0,-,N/A,,Clear,240,2013-03-02 10:54:00
4:54 AM,28.0,16.0,61,30.32,10.0,WSW,15.0,-,N/A,,Clear,240,2013-03-02 11:54:00
5:54 AM,28.0,16.0,61,30.35,10.0,WSW,15.0,-,N/A,,Clear,250,2013-03-02 12:54:00
6:54 AM,30.0,16.0,56,30.36,10.0,WSW,15.0,-,N/A,,Clear,250,2013-03-02 13:54:00
7:54 AM,37.0,17.1,44,30.34,10.0,WSW,15.0,-,N/A,,Clear,250,2013-03-02 14:54:00
8:54 AM,45.0,18.0,34,30.34,10.0,WSW,12.7,-,N/A,,Clear,250,2013-03-02 15:54:00
9:54 AM,53.1,15.1,22,30.30,10.0,Calm,Calm,-,N/A,,Clear,0,2013-03-02 16:54:00
10:54 AM,55.9,15.1,20,30.27,10.0,NNW,4.6,-,N/A,,Clear,340,2013-03-02 17:54:00
11:54 AM,57.9,15.1,19,30.23,10.0,Variable,3.5,-,N/A,,Clear,0,2013-03-02 18:54:00
12:54 PM,59.0,15.1,18,30.18,10.0,ENE,6.9,-,N/A,,Clear,70,2013-03-02 19:54:00
1:54 PM,59.0,14.0,17,30.15,10.0,Calm,Calm,-,N/A,,Clear,0,2013-03-02 20:54:00
2:54 PM,61.0,14.0,16,30.13,10.0,Variable,4.6,-,N/A,,Clear,0,2013-03-02 21:54:00
3:54 PM,61.0,14.0,16,30.12,10.0,Calm,Calm,-,N/A,,Clear,0,2013-03-02 22:54:00
4:54 PM,60.1,15.1,17,30.11,10.0,SSE,9.2,-,N/A,,Clear,150,2013-03-02 23:54:00
5:54 PM,51.1,15.1,24,30.13,10.0,SSE,8.1,-,N/A,,Clear,160,2013-03-03 00:54:00
6:54 PM,45.0,16.0,31,30.14,10.0,SSW,9.2,-,N/A,,Clear,200,2013-03-03 01:54:00
7:54 PM,43.0,17.1,35,30.11,10.0,West,6.9,-,N/A,,Clear,270,2013-03-03 02:54:00
8:54 PM,43.0,18.0,37,30.08,10.0,WSW,12.7,-,N/A,,Clear,250,2013-03-03 03:54:00
9:54 PM,42.1,18.0,38,30.05,10.0,WSW,11.5,-,N/A,,Clear,250,2013-03-03 04:54:00
10:54 PM,43.0,18.0,37,30.01,10.0,West,10.4,-,N/A,,Clear,270,2013-03-03 05:54:00
11:54 PM,41.0,17.1,38,29.99,10.0,West,8.1,-,N/A,,Clear,280,2013-03-03 06:54:00